Tracking 18785 objects as of 27-July-2017
HD Live streaming from Space Station
objects crossing your sky now
MAYAK may become the brightest orbital object in the night sky!
Where is MAYAK now?
How to spot MAYAK

USA 37

Track USA 37 now!
USA 37 is classified as:


NORAD ID: 19976
Int'l Code: 1989-035A
Perigee: 31,659.1 km
Apogee: 39,929.3 km
Inclination: 8.0 °
Period: 1,436.1 minutes
Semi major axis: 42165 km
RCS: Unknown
Launch date: May 10, 1989
Source: United States (US)
Launch site: AIR FORCE EASTERN TEST RANGE (AFETR)
Your satellite tracking list
Your tracking list is empty





NASA's NSSDC Master Catalog

Two Line Element Set (TLE):
1 19976U 89035A   17145.08350313 0.00000000  00000-0  00000-0 0    01
2 19976   8.0281   8.2956 0980689 277.4630  71.5224  1.00270000    03
Source of the keplerian elements: McCants